Location: Stockholm
(59.3330°N, 18.0500°E)
Time: 13:23:29
(UTC+01:00)

Envisat - Pass Details

Date: 07 December 2022
Orbit: 763 x 765 km, 98.2° (Epoch: 29 January)

Event Time Altitude Azimuth Distance (km) Brightness Sun altitude
Rises 04:26:26 0° 17° (NNE) 3,250 6.5 -28.5°
Reaches altitude 10° 04:28:46 10° 18° (NNE) 2,319 5.7 -28.2°
Enters shadow 04:33:27 75° 33° (NNE) 799 3.0 -27.6°
